Date String (YYYY-MM-DD hh:mm:ss) UTC,Instrument flags,Ambient pressure (hPa),Sample flow (lpm),Bypass flow (lpm),Sample temperature (°C),Ambient temperature (°C),ASC tube jacket temperature (°C),LED temperature (°C),Box temperature (°C),Sample RH (%),Span deviation,Mass concentration (μg/m³),Mass concentration (μg/m³),Mass concentration (μg/m³)
DateTimeUTC,F1_M11,P_M11,Q1_M11,Q2_M11,T1_M11,T2_M11,T3_M11,T4_M11,T5_M11,U1_M11,ZSPAN_M11,X0_M11,X2_M11,X1_M11
2022-04-07 08:00:00,,0833.4,5.00,0.00,22.5,23.1,00.0,31.3,24.5,05.4,0000.0,0006.91,0000.66,0000.38
2022-04-07 08:01:00,,0833.3,5.00,0.00,22.5,22.9,00.0,31.3,24.4,05.4,0000.0,0006.97,0000.68,0000.38
2022-04-07 08:02:00,,0833.4,5.00,0.00,22.5,22.6,00.0,31.3,24.4,05.4,0000.0,0007.12,0000.71,0000.38
2022-04-07 08:03:00,,0833.4,4.99,0.00,22.5,22.4,00.0,31.3,24.3,05.4,0000.0,0007.26,0000.72,0000.38
2022-04-07 08:04:00,,0833.4,5.02,0.00,22.5,22.2,00.0,31.3,24.3,05.4,0000.0,0005.77,0000.77,0000.39
2022-04-07 08:05:00,,0833.5,4.99,0.00,22.5,22.0,00.0,31.3,24.2,05.4,0000.0,0005.87,0000.81,0000.39
2022-04-07 08:06:00,,0833.4,5.02,0.00,22.4,21.9,00.0,31.3,24.2,05.3,0000.0,0005.44,0000.77,0000.39
2022-04-07 08:07:00,,0833.3,5.00,0.00,22.4,21.8,00.0,31.3,24.2,05.4,0000.0,0004.34,0000.80,0000.39
2022-04-07 08:08:00,,0833.3,4.99,0.00,22.4,21.7,00.0,31.3,24.1,05.4,0000.0,0002.01,0000.80,0000.39
2022-04-07 08:09:00,,0833.3,5.01,0.00,22.4,21.6,00.0,31.3,24.1,05.5,0000.0,0002.04,0000.84,0000.40
2022-04-07 08:10:00,,0833.3,5.00,0.00,22.4,21.6,00.0,31.3,24.1,05.7,0000.0,0002.25,0000.88,0000.41
2022-04-07 08:11:00,,0833.3,4.98,0.00,22.3,21.5,00.0,31.3,24.1,05.6,0000.0,0002.79,0000.90,0000.41
2022-04-07 08:12:00,,0833.2,5.00,0.00,22.3,21.5,00.0,31.3,24.0,05.5,0000.0,0003.00,0000.91,0000.41
2022-04-07 08:13:00,,0833.2,5.00,0.00,22.3,21.4,00.0,31.3,24.0,05.6,0000.0,0002.84,0000.88,0000.42
2022-04-07 08:14:00,,0833.2,5.00,0.00,22.3,21.4,00.0,31.3,24.0,05.4,0000.0,0002.66,0000.86,0000.42
2022-04-07 08:15:00,,0833.2,5.00,0.00,22.2,21.3,00.0,31.3,23.9,05.4,0000.0,0002.55,0000.83,0000.41
2022-04-07 08:16:00,,0833.2,5.00,0.00,22.2,21.3,00.0,31.3,23.9,05.5,0000.0,0002.57,0000.81,0000.41
2022-04-07 08:17:00,,0833.3,5.01,0.00,22.2,21.3,00.0,31.3,23.9,05.7,0000.0,0002.71,0000.84,0000.42
2022-04-07 08:18:00,,0833.3,4.98,0.00,22.2,21.3,00.0,31.2,23.9,05.7,0000.0,0002.99,0000.84,0000.43
2022-04-07 08:19:00,,0833.3,5.01,0.00,22.2,21.3,00.0,31.2,23.9,05.7,0000.0,0002.95,0000.85,0000.44
2022-04-07 08:20:00,,0833.4,5.01,0.00,22.2,21.2,00.0,31.2,23.9,05.8,0000.0,0002.92,0000.85,0000.45
2022-04-07 08:21:00,,0833.4,5.00,0.00,22.1,21.2,00.0,31.2,23.8,05.8,0000.0,0003.60,0000.85,0000.46
2022-04-07 08:22:00,,0833.3,5.01,0.00,22.1,21.2,00.0,31.2,23.8,05.6,0000.0,0003.14,0000.87,0000.47
2022-04-07 08:23:00,,0833.3,5.00,0.00,22.1,21.2,00.0,31.2,23.8,05.7,0000.0,0002.92,0000.87,0000.47
2022-04-07 08:24:00,,0833.3,4.98,0.00,22.1,21.4,00.0,31.2,23.8,05.9,0000.0,0003.24,0000.92,0000.48
2022-04-07 08:25:00,,0833.4,5.01,0.00,22.2,22.1,00.0,31.2,24.0,05.8,0000.0,0003.56,0000.97,0000.49
2022-04-07 08:26:00,,0833.5,5.01,0.00,22.3,22.9,00.0,31.2,24.3,05.7,0000.0,0003.80,0001.01,0000.50
2022-04-07 08:27:00,,0833.4,4.98,0.00,22.4,23.0,00.0,31.3,24.4,05.6,0000.0,0003.82,0001.01,0000.50
2022-04-07 08:28:00,,0833.4,5.00,0.00,22.4,22.7,00.0,31.3,24.3,05.6,0000.0,0004.73,0001.02,0000.51
2022-04-07 08:29:00,,0833.4,5.01,0.00,22.4,22.4,00.0,31.3,24.2,05.7,0000.0,0004.78,0001.04,0000.51
2022-04-07 08:30:00,,0833.4,5.00,0.00,22.4,22.2,00.0,31.3,24.2,05.8,0000.0,0004.86,0001.07,0000.52
2022-04-07 08:31:00,,0833.3,4.99,0.00,22.4,22.1,00.0,31.3,24.2,05.7,0000.0,0004.88,0001.09,0000.53
2022-04-07 08:32:00,,0833.3,5.02,0.00,22.4,21.9,00.0,31.3,24.1,05.7,0000.0,0004.18,0001.09,0000.53
2022-04-07 08:33:00,,0833.3,5.00,0.00,22.4,21.8,00.0,31.3,24.1,05.7,0000.0,0004.04,0001.09,0000.53
2022-04-07 08:34:00,,0833.3,4.99,0.00,22.3,21.8,00.0,31.3,24.1,05.7,0000.0,0004.92,0001.13,0000.54
2022-04-07 08:35:00,,0833.2,5.01,0.00,22.3,21.7,00.0,31.3,24.1,05.6,0000.0,0004.97,0001.14,0000.54
2022-04-07 08:36:00,,0833.3,5.01,0.00,22.3,21.6,00.0,31.3,24.0,05.6,0000.0,0005.16,0001.12,0000.53
2022-04-07 08:37:00,,0833.3,4.98,0.00,22.3,21.5,00.0,31.3,24.0,05.6,0000.0,0005.20,0001.15,0000.53
2022-04-07 08:38:00,,0833.2,5.00,0.00,22.2,21.5,00.0,31.3,23.9,05.7,0000.0,0005.23,0001.19,0000.54
2022-04-07 08:39:00,,0833.3,5.01,0.00,22.2,21.4,00.0,31.2,23.8,05.7,0000.0,0004.20,0001.18,0000.54
2022-04-07 08:40:00,,0833.2,5.00,0.00,22.2,21.3,00.0,31.2,23.8,05.7,0000.0,0003.91,0001.15,0000.53
2022-04-07 08:41:00,,0833.3,5.00,0.00,22.1,21.2,00.0,31.2,23.7,05.7,0000.0,0003.99,0001.15,0000.54
2022-04-07 08:42:00,,0833.2,5.00,0.00,22.1,21.2,00.0,31.2,23.7,05.8,0000.0,0004.15,0001.14,0000.53
2022-04-07 08:43:00,,0833.1,4.99,0.00,22.0,21.1,00.0,31.2,23.7,05.8,0000.0,0004.36,0001.13,0000.53
2022-04-07 08:44:00,,0833.2,4.99,0.00,22.0,21.1,00.0,31.1,23.6,05.8,0000.0,0004.50,0001.11,0000.53
2022-04-07 08:45:00,,0833.3,5.00,0.00,22.0,21.0,00.0,31.1,23.6,05.8,0000.0,0003.51,0001.05,0000.53
2022-04-07 08:46:00,,0833.2,5.00,0.00,21.9,20.9,00.0,31.1,23.5,05.8,0000.0,0003.39,0001.03,0000.53
2022-04-07 08:47:00,,0833.2,5.00,0.00,21.9,20.9,00.0,31.1,23.5,05.8,0000.0,0003.05,0001.00,0000.53
2022-04-07 08:48:00,,0833.2,5.01,0.00,21.9,21.2,00.0,31.1,23.6,05.9,0000.0,0003.24,0000.98,0000.53
2022-04-07 08:49:00,,0833.3,5.00,0.00,22.0,22.1,00.0,31.1,23.9,05.8,0000.0,0003.37,0000.99,0000.53
2022-04-07 08:50:00,,0833.3,5.02,0.00,22.2,23.0,00.0,31.1,24.2,05.8,0000.0,0003.47,0001.04,0000.52
2022-04-07 08:51:00,,0833.2,5.00,0.00,22.3,23.2,00.0,31.2,24.3,05.8,0000.0,0003.47,0001.06,0000.52
2022-04-07 08:52:00,,0833.2,5.00,0.00,22.3,22.9,00.0,31.2,24.2,05.8,0000.0,0003.66,0001.05,0000.51
2022-04-07 08:53:00,,0833.2,5.00,0.00,22.3,22.5,00.0,31.2,24.2,05.8,0000.0,0003.67,0001.08,0000.51
2022-04-07 08:54:00,,0833.2,4.99,0.00,22.3,22.2,00.0,31.2,24.0,05.8,0000.0,0003.58,0001.13,0000.52
2022-04-07 08:55:00,,0833.1,5.00,0.00,22.2,21.9,00.0,31.2,23.9,05.8,0000.0,0003.58,0001.13,0000.51
2022-04-07 08:56:00,,0833.1,5.00,0.00,22.2,21.7,00.0,31.2,23.8,05.9,0000.0,0004.08,0001.13,0000.51
2022-04-07 08:57:00,,0833.2,5.01,0.00,22.1,21.5,00.0,31.1,23.8,05.9,0000.0,0004.17,0001.10,0000.51
2022-04-07 08:58:00,,0833.1,5.00,0.00,22.1,21.4,00.0,31.1,23.7,06.0,0000.0,0004.17,0001.17,0000.52
2022-04-07 08:59:00,,0833.1,5.00,0.00,22.0,21.2,00.0,31.1,23.6,06.0,0000.0,0003.89,0001.20,0000.53
